Total_Precipitation_Accumulation
0.44 0.44 0.44 0.41 0.39 0.33 0.28 0.27 0.27 0.29 0.32 0.35 0.39 0.42 0.43 0.44 0.45 0.51 0.64 0.81 0.89 0.90 0.91 0.96 0.93 0.88 0.85 0.81 0.81 0.86 0.92 0.89 0.70 0.53 0.51 0.47 0.44 0.43 0.39 0.33 0.24 0.17 0.12
0.61 0.69 0.70 0.62 0.53 0.43 0.33 0.29 0.28 0.30 0.33 0.33 0.32 0.33 0.35 0.38 0.43 0.51 0.61 0.69 0.74 0.74 0.71 0.68 0.66 0.62 0.60 0.59 0.62 0.63 0.65 0.74 0.71 0.57 0.55 0.51 0.48 0.49 0.51 0.46 0.34 0.22 0.18
0.67 0.91 1.02 0.93 0.79 0.61 0.42 0.28 0.23 0.22 0.25 0.26 0.26 0.29 0.36 0.47 0.55 0.60 0.63 0.65 0.64 0.64 0.66 0.66 0.57 0.50 0.48 0.46 0.47 0.46 0.45 0.53 0.57 0.54 0.52 0.50 0.45 0.44 0.46 0.47 0.46 0.36 0.26
0.62 0.78 0.84 0.77 0.67 0.54 0.36 0.22 0.17 0.16 0.17 0.21 0.26 0.32 0.40 0.48 0.56 0.59 0.59 0.56 0.52 0.47 0.48 0.50 0.49 0.44 0.40 0.38 0.37 0.36 0.35 0.42 0.48 0.50 0.49 0.49 0.47 0.43 0.41 0.46 0.56 0.51 0.43
0.39 0.45 0.50 0.44 0.33 0.28 0.23 0.18 0.15 0.15 0.17 0.20 0.24 0.30 0.34 0.37 0.40 0.36 0.32 0.31 0.29 0.25 0.25 0.27 0.30 0.33 0.35 0.32 0.30 0.33 0.35 0.36 0.37 0.37 0.37 0.40 0.46 0.49 0.46 0.47 0.58 0.63 0.59
0.23 0.27 0.32 0.33 0.26 0.20 0.15 0.11 0.09 0.11 0.13 0.17 0.21 0.26 0.26 0.25 0.30 0.20 0.11 0.11 0.13 0.15 0.18 0.20 0.23 0.23 0.26 0.28 0.28 0.28 0.31 0.31 0.30 0.28 0.27 0.33 0.40 0.49 0.55 0.55 0.58 0.59 0.61
0.19 0.24 0.31 0.33 0.28 0.23 0.15 0.12 0.10 0.10 0.10 0.12 0.13 0.13 0.14 0.17 0.18 0.13 0.05 0.05 0.08 0.09 0.10 0.12 0.14 0.18 0.19 0.18 0.18 0.18 0.18 0.20 0.23 0.25 0.22 0.21 0.22 0.23 0.30 0.41 0.56 0.73 0.81
0.18 0.22 0.26 0.30 0.26 0.23 0.21 0.21 0.20 0.16 0.13 0.11 0.10 0.09 0.12 0.14 0.11 0.10 0.06 0.05 0.08 0.09 0.09 0.07 0.07 0.07 0.09 0.10 0.11 0.10 0.09 0.09 0.12 0.15 0.15 0.13 0.11 0.11 0.14 0.18 0.27 0.47 0.71
0.16 0.22 0.25 0.28 0.27 0.25 0.26 0.26 0.24 0.21 0.17 0.14 0.12 0.11 0.13 0.15 0.12 0.08 0.06 0.07 0.10 0.11 0.10 0.08 0.05 0.03 0.04 0.05 0.08 0.09 0.08 0.07 0.07 0.07 0.07 0.06 0.04 0.04 0.04 0.05 0.06 0.11 0.25
0.16 0.23 0.28 0.29 0.31 0.31 0.32 0.31 0.28 0.27 0.22 0.18 0.15 0.15 0.17 0.20 0.19 0.13 0.08 0.10 0.14 0.13 0.13 0.09 0.05 0.02 0.02 0.03 0.07 0.07 0.07 0.06 0.05 0.04 0.03 0.04 0.03 0.02 0.01 0.01 0.02 0.03 0.06
0.14 0.20 0.27 0.30 0.33 0.36 0.39 0.39 0.36 0.34 0.32 0.29 0.25 0.21 0.22 0.25 0.27 0.21 0.13 0.15 0.19 0.17 0.15 0.09 0.03 0.01 0.02 0.03 0.05 0.07 0.06 0.04 0.03 0.02 0.02 0.02 0.02 0.02 0.01 0.01 0.01 0.03 0.04
0.17 0.23 0.29 0.31 0.27 0.29 0.40 0.44 0.45 0.46 0.41 0.39 0.36 0.31 0.29 0.30 0.30 0.27 0.20 0.18 0.22 0.23 0.21 0.12 0.03 0.01 0.01 0.02 0.04 0.03 0.02 0.03 0.02 0.01 0.01 0.01 0.01 0.01 0.01 0.01 0.02 0.03 0.03
0.22 0.27 0.32 0.32 0.32 0.37 0.43 0.47 0.51 0.53 0.50 0.46 0.46 0.43 0.39 0.36 0.33 0.30 0.25 0.20 0.22 0.27 0.23 0.17 0.06 0.02 0.01 0.01 0.01 0.01 0.01 0.01 0.01 0.02 0.02 0.01 0.01 0.00 0.00 0.01 0.01 0.02 0.03
0.28 0.29 0.31 0.33 0.34 0.37 0.45 0.48 0.52 0.56 0.59 0.57 0.54 0.52 0.50 0.44 0.39 0.35 0.29 0.24 0.25 0.27 0.22 0.16 0.06 0.02 0.01 0.01 0.01 0.00 0.00 0.00 0.00 0.00 0.01 0.01 0.00 0.00 0.01 0.02 0.02 0.03 0.03
0.36 0.33 0.32 0.33 0.36 0.42 0.45 0.50 0.51 0.57 0.59 0.60 0.58 0.57 0.57 0.54 0.45 0.41 0.37 0.30 0.30 0.31 0.22 0.13 0.06 0.01 0.01 0.01 0.01 0.00 0.00 0.00 0.00 0.00 0.00 0.00 0.00 0.00 0.02 0.06 0.07 0.05 0.02
0.44 0.44 0.40 0.36 0.37 0.40 0.43 0.43 0.42 0.44 0.45 0.46 0.48 0.49 0.49 0.45 0.43 0.38 0.33 0.29 0.30 0.29 0.20 0.10 0.04 0.01 0.01 0.01 0.01 0.00 0.00 0.00 0.00 0.00 0.00 0.00 0.00 0.00 0.00 0.01 0.02 0.03 0.03
0.48 0.48 0.46 0.41 0.40 0.41 0.43 0.43 0.46 0.46 0.47 0.46 0.43 0.42 0.43 0.41 0.38 0.34 0.30 0.27 0.26 0.23 0.15 0.07 0.03 0.01 0.00 0.00 0.00 0.01 0.00 0.00 0.00 0.00 0.00 0.00 0.00 0.00 0.00 0.00 0.00 0.01 0.02
0.46 0.47 0.46 0.43 0.39 0.40 0.42 0.44 0.49 0.56 0.59 0.54 0.46 0.41 0.40 0.37 0.32 0.29 0.27 0.26 0.22 0.16 0.10 0.05 0.02 0.00 0.00 0.00 0.00 0.00 0.00 0.00 0.00 0.00 0.00 0.00 0.00 0.00 0.00 0.00 0.01 0.01 0.01
0.46 0.47 0.46 0.44 0.42 0.42 0.42 0.45 0.48 0.55 0.60 0.58 0.53 0.47 0.42 0.39 0.32 0.27 0.25 0.20 0.13 0.09 0.05 0.03 0.02 0.00 0.00 0.00 0.00 0.00 0.00 0.00 0.00 0.00 0.00 0.00 0.00 0.00 0.00 0.00 0.00 0.00 0.00
0.49 0.45 0.46 0.46 0.43 0.42 0.42 0.43 0.47 0.54 0.58 0.54 0.49 0.47 0.43 0.42 0.31 0.23 0.19 0.13 0.07 0.04 0.02 0.02 0.01 0.00 0.00 0.00 0.00 0.00 0.00 0.00 0.00 0.00 0.00 0.00 0.00 0.00 0.00 0.00 0.00 0.00 0.00
0.52 0.45 0.41 0.41 0.40 0.40 0.42 0.44 0.47 0.50 0.52 0.47 0.41 0.38 0.35 0.30 0.20 0.13 0.10 0.07 0.04 0.02 0.01 0.01 0.01 0.00 0.00 0.00 0.00 0.00 0.00 0.00 0.00 0.00 0.00 0.00 0.00 0.00 0.00 0.00 0.00 0.00 0.00
0.54 0.47 0.40 0.36 0.37 0.39 0.39 0.44 0.48 0.47 0.44 0.41 0.37 0.32 0.31 0.26 0.15 0.08 0.05 0.04 0.02 0.01 0.00 0.00 0.00 0.00 0.00 0.00 0.00 0.00 0.00 0.00 0.00 0.00 0.00 0.00 0.00 0.00 0.00 0.00 0.00 0.00 0.00
0.57 0.47 0.38 0.32 0.31 0.33 0.32 0.39 0.46 0.45 0.40 0.35 0.31 0.28 0.26 0.24 0.13 0.06 0.04 0.03 0.02 0.01 0.00 0.00 0.00 0.00 0.00 0.00 0.00 0.00 0.00 0.00 0.00 0.00 0.00 0.00 0.00 0.00 0.00 0.00 0.00 0.00 0.00
0.58 0.49 0.40 0.31 0.29 0.31 0.33 0.37 0.41 0.40 0.34 0.29 0.24 0.21 0.20 0.17 0.10 0.05 0.03 0.03 0.02 0.01 0.00 0.00 0.00 0.00 0.00 0.00 0.00 0.00 0.00 0.00 0.00 0.00 0.00 0.00 0.00 0.00 0.00 0.00 0.00 0.00 0.00
0.59 0.49 0.39 0.29 0.25 0.28 0.32 0.36 0.37 0.35 0.28 0.22 0.18 0.15 0.14 0.13 0.09 0.04 0.02 0.02 0.02 0.01 0.00 0.00 0.00 0.00 0.00 0.00 0.00 0.00 0.00 0.00 0.00 0.00 0.00 0.00 0.00 0.00 0.00 0.00 0.00 0.00 0.00
0.57 0.48 0.40 0.30 0.23 0.23 0.28 0.30 0.29 0.26 0.21 0.17 0.13 0.10 0.09 0.09 0.06 0.03 0.02 0.01 0.01 0.01 0.00 0.00 0.00 0.00 0.00 0.00 0.00 0.00 0.00 0.00 0.00 0.00 0.00 0.00 0.00 0.00 0.00 0.00 0.00 0.00 0.00